Weather History for KSUA - February, 2013

Change the Weather History Date:

Monday, February 18, 2013

  Actual Average Record
Temperature  
Mean Temperature 57 °F -  
Max Temperature 68 °F 76 °F 77 °F (2014)
Min Temperature 46 °F 57 °F 44 °F (2015)
Degree Days  
Heating Degree Days 8    
Growing Degree Days 7 (Base 50)    
Moisture  
Dew Point 36 °F    
Average Humidity 48    
Maximum Humidity 59    
Minimum Humidity 37    
Precipitation  
Precipitation 0.00 in - - ()
Sea Level Pressure  
Sea Level Pressure 30.30 in    
Wind  
Wind Speed 9 mph (NE)    
Max Wind Speed 15 mph    
Max Gust Speed 21 mph    
Visibility 10 miles    
Events      
Averages and records for this station are not official NWS values.
T = Trace of Precipitation, MM = Missing Value Source: NWS Daily Summary

Daily Weather History Graph

Daily Weather History Graph

Search for Another Location

Airport or City:

Trip Planner

Search our weather history database for the weather conditions in past years. The results will help you decide how hot, cold, wet, or windy it might be!

Date:

Astronomy

Feb. 18, 2013 Rise Set
Actual Time 6:54 AM EST 6:15 PM EST
Civil Twilight 6:31 AM EST 6:38 PM EST
Nautical Twilight 6:03 AM EST 7:05 PM EST
Astronomical Twilight 5:36 AM EST 7:33 PM EST
Moon 12:14 PM EST (2/18) 1:19 AM EST (2/18)
Length of Visible Light 12h 07m
Length of Day
11h 20m
First Quarter, 58% of the Moon is Illuminated
Feb 18
First Quarter
Feb 25
Full
Mar 4
Last Quarter
Mar 11
New
Mar 19
First Quarter

Hourly Weather History & Observations

Time (EST) Temp. Windchill Dew Point Humidity Pressure Visibility Wind Dir Wind Speed Gust Speed Precip Events Conditions
12:15 AM 46.4 °F 42.4 °F 28.4 °F 50% 30.33 in 10.0 mi NW 8.1 mph - N/A   Clear
12:35 AM 46.4 °F 42.4 °F 26.6 °F 46% 30.33 in 10.0 mi NW 8.1 mph - N/A   Clear
12:55 AM 46.4 °F 42.4 °F 26.6 °F 46% 30.34 in 10.0 mi NW 8.1 mph - N/A   Clear
1:15 AM 46.4 °F 41.9 °F 26.6 °F 46% 30.34 in 10.0 mi NW 9.2 mph - N/A   Clear
1:35 AM 46.4 °F 41.9 °F 24.8 °F 43% 30.33 in 10.0 mi NW 9.2 mph - N/A   Clear
1:55 AM 46.4 °F 41.9 °F 24.8 °F 43% 30.33 in 10.0 mi NW 9.2 mph - N/A   Clear
2:15 AM 46.4 °F 42.4 °F 23.0 °F 40% 30.33 in 10.0 mi NW 8.1 mph - N/A   Clear
2:35 AM 46.4 °F 41.9 °F 21.2 °F 37% 30.32 in 10.0 mi NW 9.2 mph - N/A   Clear
2:55 AM 46.4 °F 41.9 °F 21.2 °F 37% 30.32 in 10.0 mi NW 9.2 mph - N/A   Clear
3:15 AM 46.4 °F 42.4 °F 23.0 °F 40% 30.31 in 10.0 mi NNW 8.1 mph - N/A   Clear
3:35 AM 46.4 °F 42.4 °F 21.2 °F 37% 30.31 in 10.0 mi NW 8.1 mph - N/A   Clear
3:55 AM 46.4 °F 41.9 °F 21.2 °F 37% 30.30 in 10.0 mi NW 9.2 mph - N/A   Clear
4:15 AM 46.4 °F 41.9 °F 23.0 °F 40% 30.31 in 10.0 mi NW 9.2 mph - N/A   Clear
4:35 AM 46.4 °F 42.4 °F 23.0 °F 40% 30.31 in 10.0 mi NW 8.1 mph - N/A   Clear
4:55 AM 46.4 °F 41.9 °F 26.6 °F 46% 30.31 in 10.0 mi NW 9.2 mph - N/A   Clear
5:15 AM 46.4 °F 41.9 °F 26.6 °F 46% 30.31 in 10.0 mi NNW 9.2 mph - N/A   Clear
6:47 AM 46.4 °F 42.9 °F 32.0 °F 57% 30.31 in 10.0 mi WNW 6.9 mph - N/A   Scattered Clouds
7:47 AM 48.2 °F - 32.0 °F 54% 30.33 in 10.0 mi NW 6.9 mph - N/A   Mostly Cloudy
8:47 AM 50.0 °F - 35.6 °F 58% 30.34 in 10.0 mi NW 5.8 mph - N/A   Mostly Cloudy
10:47 AM 68.0 °F - 41.0 °F 37% 30.36 in 10.0 mi East 15.0 mph 20.7 mph N/A   Mostly Cloudy
1:47 PM 66.2 °F - 42.8 °F 43% 30.31 in 7.0 mi ESE 15.0 mph 20.7 mph N/A   Mostly Cloudy
2:47 PM 66.2 °F - 44.6 °F 46% 30.29 in 7.0 mi ESE 10.4 mph - N/A   Mostly Cloudy
4:47 PM 66.2 °F - 42.8 °F 43% 30.28 in 7.0 mi East 9.2 mph - N/A   Mostly Cloudy
5:47 PM 64.4 °F - 42.8 °F 45% 30.29 in 7.0 mi ESE 9.2 mph - N/A   Mostly Cloudy
6:47 PM 64.4 °F - 44.6 °F 49% 30.29 in 7.0 mi East 8.1 mph - N/A   Mostly Cloudy
7:15 PM 62.6 °F - 44.6 °F 52% 30.28 in 10.0 mi East 6.9 mph - N/A   Overcast
7:35 PM 64.4 °F - 44.6 °F 49% 30.28 in 10.0 mi East 6.9 mph - N/A   Overcast
7:55 PM 64.4 °F - 44.6 °F 49% 30.28 in 10.0 mi East 6.9 mph - N/A   Overcast
8:15 PM 64.4 °F - 44.6 °F 49% 30.27 in 10.0 mi East 8.1 mph - N/A   Overcast
8:35 PM 64.4 °F - 44.6 °F 49% 30.27 in 10.0 mi East 9.2 mph - N/A   Mostly Cloudy
8:55 PM 64.4 °F - 46.4 °F 52% 30.27 in 10.0 mi East 9.2 mph - N/A   Mostly Cloudy
9:15 PM 62.6 °F - 46.4 °F 55% 30.26 in 10.0 mi ESE 8.1 mph - N/A   Scattered Clouds
9:35 PM 62.6 °F - 46.4 °F 55% 30.27 in 10.0 mi ESE 8.1 mph - N/A   Scattered Clouds
9:55 PM 64.4 °F - 46.4 °F 52% 30.26 in 10.0 mi ESE 6.9 mph - N/A   Mostly Cloudy
10:15 PM 64.4 °F - 46.4 °F 52% 30.26 in 10.0 mi ESE 8.1 mph - N/A   Overcast
10:35 PM 64.4 °F - 48.2 °F 56% 30.26 in 10.0 mi ESE 11.5 mph - N/A   Mostly Cloudy
10:55 PM 64.4 °F - 50.0 °F 59% 30.26 in 10.0 mi ESE 10.4 mph - N/A   Mostly Cloudy
11:15 PM 64.4 °F - 50.0 °F 59% 30.26 in 10.0 mi ESE 8.1 mph - N/A   Mostly Cloudy
11:35 PM 64.4 °F - 50.0 °F 59% 30.25 in 10.0 mi ESE 10.4 mph - N/A   Scattered Clouds
11:55 PM 64.4 °F - 50.0 °F 59% 30.24 in 10.0 mi ESE 9.2 mph 18.4 mph N/A   Scattered Clouds